AB2TC-1 Weather Reports


Display with metric or nautical units.
time (UTC)temp
F
wind
direction
speed
MPH
gust
MPH
rain 1hr
in
rain 24hr
in
rain mn
in
humidity
%
barometer
mb
20260504050501 52 222 0.0 4.0 0.00 0.00 0.00 50 1008.6
20260504050002 52 222 0.0 2.0 0.00 0.00 0.00 50 1008.6
20260504045001 52 206 0.0 2.0 0.00 0.00 0.00 51 1008.8
20260504044501 52 174 0.0 2.0 0.00 0.00 0.00 52 1008.8
20260504044001 52 205 0.0 1.0 0.00 0.00 0.00 52 1008.8
20260504043501 52 295 0.0 1.0 0.00 0.00 0.00 52 1008.8
20260504043001 52 221 0.0 1.0 0.00 0.00 0.00 53 1008.8
20260504042501 52 328 0.0 1.0 0.00 0.00 0.00 52 1008.8
20260504042001 52 209 0.0 1.0 0.00 0.00 0.00 53 1008.8
20260504041501 52 216 0.0 1.0 0.00 0.00 0.00 53 1008.9
20260504041001 52 218 0.0 1.0 0.00 0.00 0.00 54 1008.9
20260504040501 52 199 0.0 2.0 0.00 0.00 0.00 54 1008.9
20260504040004 52 245 0.0 2.0 0.00 0.00 0.00 53 1009.0
20260504035501 52 212 0.0 1.0 0.00 0.00 0.00 54 1009.0
20260504035002 52 194 0.0 1.0 0.00 0.00 0.00 54 1008.9
20260504034502 51 170 0.0 1.0 0.00 0.00 0.00 55 1009.0
20260504034001 51 207 0.0 1.0 0.00 0.00 0.00 56 1009.0
20260504033502 51 212 0.0 1.0 0.00 0.00 0.00 56 1009.1
20260504033003 51 211 0.0 2.0 0.00 0.00 0.00 56 1009.2
20260504032502 51 260 0.0 4.0 0.00 0.00 0.00 57 1009.2
20260504032002 51 239 0.0 4.0 0.00 0.00 0.00 57 1009.4
20260504031502 51 261 0.0 3.0 0.00 0.00 0.00 58 1009.4
20260504031001 50 243 0.0 1.0 0.00 0.00 0.00 59 1009.4
20260504030503 50 280 0.0 1.0 0.00 0.00 0.00 60 1009.4
20260504030004 50 256 0.0 2.0 0.00 0.00 0.00 60 1009.4
20260504025502 50 278 0.0 2.0 0.00 0.00 0.00 60 1009.5
20260504025001 50 243 0.0 1.0 0.00 0.00 0.00 61 1009.4
20260504024002 50 250 0.0 3.0 0.00 0.00 0.00 62 1009.4
20260504023502 49 228 0.0 1.0 0.00 0.00 0.00 64 1009.5
20260504023002 49 240 0.0 1.0 0.00 0.00 0.00 63 1009.6
20260504022501 49 288 0.0 2.0 0.00 0.00 0.00 64 1009.8
20260504021502 49 156 0.0 3.0 0.00 0.00 0.00 64 1009.9
20260504021002 49 269 1.0 5.0 0.00 0.00 0.00 65 1010.0
20260504020502 49 164 1.0 5.0 0.00 0.00 0.00 65 1010.0
20260504020003 49 165 2.0 6.0 0.00 0.00 0.00 65 1010.0
20260504015502 49 266 2.0 5.0 0.00 0.00 0.00 66 1010.1
20260504014501 50 251 2.0 12.0 0.00 0.00 0.00 65 1010.5
20260504014002 51 285 2.0 6.0 0.00 0.00 0.00 61 1010.4
20260504013502 52 247 3.0 9.0 0.00 0.00 0.00 57 1010.4
20260504013002 52 300 2.0 9.0 0.00 0.00 0.00 54 1010.2
20260504012501 53 285 2.0 4.0 0.00 0.00 0.00 53 1010.1
20260504012001 53 252 3.0 9.0 0.00 0.00 0.00 52 1010.0
20260504011502 53 261 3.0 9.0 0.00 0.00 0.00 51 1009.8
20260504011002 53 288 3.0 11.0 0.00 0.00 0.00 50 1009.7
20260504010003 54 270 5.0 15.0 0.00 0.00 0.00 48 1009.8
20260504005502 54 281 5.0 15.0 0.00 0.00 0.00 48 1009.6
20260504005002 54 264 5.0 14.0 0.00 0.00 0.00 47 1009.7
20260504004501 54 266 4.0 18.0 0.00 0.00 0.00 46 1009.6
20260504004002 54 212 4.0 18.0 0.00 0.00 0.00 46 1009.4
20260504003502 54 303 5.0 15.0 0.00 0.00 0.00 45 1009.4
20260504002502 54 287 3.0 9.0 0.00 0.00 0.00 44 1009.3
20260504002001 54 293 2.0 8.0 0.00 0.00 0.00 43 1009.1
20260504001500 54 291 1.0 5.0 0.00 0.00 0.00 44 1009.0
20260504001001 53 281 1.0 4.0 0.00 0.00 0.00 45 1009.0
20260504000501 53 298 1.0 4.0 0.00 0.00 0.00 45 1008.9
20260504000003 53 236 0.0 2.0 0.00 0.00 0.00 46 1008.9
20260503235502 53 166 0.0 1.0 0.00 0.00 0.00 47 1008.9
20260503235001 53 154 0.0 0.0 0.00 0.00 0.00 47 1008.8
20260503234000 53 260 1.0 3.0 0.00 0.00 0.00 47 1008.9
20260503233501 53 150 2.0 8.0 0.00 0.00 0.00 47 1009.0
20260503233001 53 205 2.0 8.0 0.00 0.00 0.00 47 1009.3
20260503232501 53 32 2.0 11.0 0.00 0.00 0.00 47 1009.3
20260503232001 53 274 3.0 11.0 0.00 0.00 0.00 45 1009.5
20260503231502 53 229 3.0 14.0 0.00 0.00 0.00 46 1009.6
20260503231002 53 225 2.0 14.0 0.00 0.00 0.00 44 1009.6
20260503230501 54 229 1.0 5.0 0.00 0.00 0.00 44 1009.6
20260503230002 54 252 1.0 4.0 0.00 0.00 0.00 43 1009.8
20260503225503 54 257 1.0 6.0 0.00 0.00 0.00 43 1009.5
20260503224502 54 240 1.0 6.0 0.00 0.00 0.00 44 1009.3
20260503224002 54 257 1.0 3.0 0.00 0.00 0.00 43 1009.3
20260503223502 54 261 1.0 4.0 0.00 0.00 0.00 43 1009.3
20260503223002 54 242 1.0 4.0 0.00 0.00 0.00 41 1009.2
20260503222501 54 237 1.0 3.0 0.00 0.00 0.00 42 1009.2
20260503222002 54 268 2.0 4.0 0.00 0.00 0.00 42 1009.2
20260503221501 54 170 2.0 4.0 0.00 0.00 0.00 41 1009.1
20260503220501 54 261 1.0 5.0 0.00 0.00 0.00 41 1009.1
20260503220003 54 287 1.0 6.0 0.00 0.00 0.00 41 1009.2
20260503215501 54 218 2.0 6.0 0.00 0.00 0.00 41 1009.4
20260503215001 54 285 2.0 5.0 0.00 0.00 0.00 43 1009.4
20260503214501 53 266 2.0 6.0 0.00 0.00 0.00 41 1009.4
20260503214002 53 253 2.0 6.0 0.00 0.00 0.00 42 1009.4
20260503213501 53 285 2.0 6.0 0.00 0.00 0.00 41 1009.4
20260503213001 53 269 2.0 6.0 0.00 0.00 0.00 42 1009.3
20260503212501 53 259 2.0 6.0 0.00 0.00 0.00 41 1009.4
20260503212001 53 271 2.0 6.0 0.00 0.00 0.00 41 1009.3
20260503211502 54 324 1.0 5.0 0.00 0.00 0.00 42 1009.3
20260503211002 53 325 1.0 5.0 0.00 0.00 0.00 43 1009.4
20260503210501 53 231 3.0 6.0 0.00 0.00 0.00 42 1009.3
20260503205501 53 259 2.0 6.0 0.00 0.00 0.00 43 1009.5
20260503204959 53 266 2.0 8.0 0.00 0.00 0.00 43 1009.5
20260503204000 53 254 2.0 5.0 0.00 0.00 0.00 44 1009.6
20260503203000 53 239 2.0 6.0 0.00 0.00 0.00 46 1009.8
20260503202459 53 245 2.0 7.0 0.00 0.00 0.00 46 1009.8
20260503202000 53 315 3.0 7.0 0.00 0.00 0.00 44 1009.8
20260503201459 53 286 2.0 6.0 0.00 0.00 0.00 44 1009.8
20260503201000 53 227 3.0 12.0 0.00 0.00 0.00 45 1009.9
20260503200500 53 259 2.0 12.0 0.00 0.00 0.00 44 1010.0
20260503200004 53 304 1.0 8.0 0.00 0.00 0.00 44 1009.9
20260503195501 52 232 2.0 9.0 0.00 0.00 0.00 45 1010.1
20260503195002 52 318 2.0 10.0 0.00 0.00 0.00 45 1010.1
20260503194502 52 246 3.0 8.0 0.00 0.00 0.00 45 1010.2
20260503193501 52 288 3.0 9.0 0.00 0.00 0.00 43 1010.3
20260503193001 52 241 2.0 8.0 0.00 0.00 0.00 43 1010.2
20260503192502 52 280 2.0 6.0 0.00 0.00 0.00 42 1010.3
20260503192002 52 288 2.0 7.0 0.00 0.00 0.00 43 1010.4
20260503191501 53 296 3.0 7.0 0.00 0.00 0.00 42 1010.4
20260503191001 53 238 3.0 6.0 0.00 0.00 0.00 40 1010.4
20260503190502 53 266 2.0 6.0 0.00 0.00 0.00 41 1010.4
20260503190002 53 258 2.0 6.0 0.00 0.00 0.00 42 1010.3
20260503184959 53 283 3.0 9.0 0.00 0.00 0.00 42 1010.5
20260503184501 53 292 3.0 7.0 0.00 0.00 0.00 41 1010.5
20260503183500 54 260 2.0 6.0 0.00 0.00 0.00 42 1010.7
20260503183000 53 291 2.0 6.0 0.00 0.00 0.00 40 1010.7
20260503182500 53 275 2.0 4.0 0.00 0.00 0.00 40 1010.8
20260503182000 53 288 3.0 8.0 0.00 0.00 0.00 38 1010.9
20260503181500 53 238 3.0 8.0 0.00 0.00 0.00 36 1011.0
20260503181000 53 250 3.0 8.0 0.00 0.00 0.00 38 1011.0
20260503180459 53 264 3.0 9.0 0.00 0.00 0.00 38 1011.0
20260503180002 53 274 2.0 9.0 0.00 0.00 0.00 36 1011.0
20260503175459 53 272 2.0 5.0 0.00 0.00 0.00 37 1011.1
20260503174959 52 267 3.0 6.0 0.00 0.00 0.00 39 1011.2
20260503174501 52 217 3.0 8.0 0.00 0.00 0.00 40 1011.3
20260503173959 51 252 3.0 8.0 0.00 0.00 0.00 38 1011.3
20260503173500 51 281 2.0 6.0 0.00 0.00 0.00 39 1011.4
20260503172501 51 308 2.0 11.0 0.00 0.00 0.00 37 1011.5
20260503171959 50 276 2.0 11.0 0.00 0.00 0.00 38 1011.5
20260503171500 50 268 2.0 6.0 0.00 0.00 0.00 39 1011.5
20260503171000 50 272 3.0 8.0 0.00 0.00 0.00 38 1011.6
20260503170501 50 243 3.0 8.0 0.00 0.00 0.00 37 1011.7
20260503151000 45 301 2.0 12.0 0.00 0.00 0.00 43 1013.0
20260503150500 45 281 1.0 4.0 0.00 0.00 0.00 45 1013.1
20260503130459 40 233 1.0 6.0 0.00 0.00 0.00 66 1013.6
20260503110459 37 248 0.0 3.0 0.00 0.00 0.00 77 1013.0
20260503081458 38 236 0.0 3.0 0.00 0.00 0.00 77 1012.9
20260503080959 38 249 0.0 3.0 0.00 0.00 0.00 76 1012.9
20260503080459 38 239 0.0 1.0 0.00 0.00 0.00 77 1013.0
20260503072459 38 263 0.0 2.0 0.00 0.00 0.00 76 1012.8
20260503072000 38 255 0.0 0.0 0.00 0.00 0.00 76 1012.8
20260503070959 38 253 0.0 3.0 0.00 0.00 0.00 76 1012.8
20260503070459 38 251 0.0 3.0 0.00 0.00 0.00 76 1012.8